Location: Cabrera Baja
(40.4089°N, 4.3354°W)
Time: 18:07:14
(UTC+00:00)

Cosmos 1464 Rocket - Pass Details

Date: 14 July 2020
Orbit: 951 x 1002 km, 82.9° (Epoch: 11 August)

Event Time Altitude Azimuth Distance (km) Brightness Sun altitude
Exits shadow 03:44:06 10° 194° (SSW) 2,761 5.9 -12.4°
Maximum altitude 03:50:26 71° 278° (W) 1,056 4.1 -11.5°
Drops below altitude 10° 03:56:49 10° 3° (N) 2,772 7.0 -10.6°
Sets 03:59:21 0° 6° (N) 3,720 7.8 -10.2°
